KE0BZR Weather Reports


time (UTC)temp
C
wind
direction
speed
KPH
gust
KPH
rain 1hr
cm
rain 24hr
cm
rain mn
cm
humidity
%
barometer
mb
20260906224512 31 360 4.8 19.3 0.00 0.00 0.00 33 1000.4
20260906223009 31 360 6.4 24.1 0.00 0.00 0.00 33 1000.5
20260906221517 32 360 4.8 17.7 0.00 0.00 0.00 32 1000.7
20260906220012 31 360 1.6 12.9 0.00 0.00 0.00 33 1000.9
20260906214502 31 360 3.2 9.7 0.00 0.00 0.00 33 1001.2
20260906213003 31 360 4.8 17.7 0.00 0.00 0.00 32 1001.4
20260906211605 31 360 0.0 19.3 0.00 0.00 0.00 34 1001.8
20260906210058 30 360 0.0 9.7 0.00 0.00 0.00 34 1002.0
20260906204553 31 360 3.2 9.7 0.00 0.00 0.00 35 1002.2
20260906203052 30 360 4.8 12.9 0.00 0.00 0.00 34 1002.6
20260906201606 31 360 0.0 9.7 0.00 0.00 0.00 32 1002.6
20260906200048 30 360 0.0 12.9 0.00 0.00 0.00 32 1002.7
20260906194546 30 360 0.0 14.5 0.00 0.00 0.00 35 1002.8
20260906193044 30 360 0.0 6.4 0.00 0.00 0.00 32 1003.0
20260906191538 29 360 3.2 8.0 0.00 0.00 0.00 35 1003.3
20260906190043 28 360 3.2 12.9 0.00 0.00 0.00 37 1003.5
20260906184533 28 360 3.2 12.9 0.00 0.00 0.00 38 1003.8
20260906183045 27 360 4.8 12.9 0.00 0.00 0.00 38 1004.1
20260906181525 28 360 6.4 14.5 0.00 0.00 0.00 39 1004.3
20260906180022 27 360 0.0 8.0 0.00 0.00 0.00 40 1004.5
20260906174517 27 360 0.0 3.2 0.00 0.00 0.00 44 1004.8
20260906173013 26 360 0.0 0.0 0.00 0.00 0.00 46 1005.1
20260906171517 26 360 0.0 1.6 0.00 0.00 0.00 46 1005.4
20260906170005 26 360 0.0 0.0 0.00 0.00 0.00 46 1005.8
20260906164502 25 360 0.0 0.0 0.00 0.00 0.00 47 1005.9
20260906163106 25 360 0.0 1.6 0.00 0.00 0.00 51 1005.9
20260906161600 24 360 0.0 3.2 0.00 0.00 0.00 53 1005.8
20260906160052 23 360 0.0 4.8 0.00 0.00 0.00 56 1005.8
20260906154547 23 360 1.6 6.4 0.00 0.00 0.00 59 1005.8
20260906153043 22 360 0.0 6.4 0.00 0.00 0.00 63 1005.8
20260906151540 22 360 0.0 3.2 0.00 0.00 0.00 64 1005.9
20260906150037 21 360 0.0 4.8 0.00 0.00 0.00 68 1006.0
20260906144532 20 360 3.2 6.4 0.00 0.00 0.00 71 1006.1
20260906143028 20 360 0.0 6.4 0.00 0.00 0.00 73 1006.1
20260906141526 19 360 0.0 1.6 0.00 0.00 0.00 73 1006.1
20260906140035 18 360 0.0 1.6 0.00 0.00 0.00 73 1006.3
20260906134518 17 360 0.0 3.2 0.00 0.00 0.00 73 1006.2
20260906133015 17 360 1.6 4.8 0.00 0.00 0.00 75 1006.0
20260906131510 16 360 0.0 3.2 0.00 0.00 0.00 76 1006.0
20260906130006 16 360 0.0 3.2 0.00 0.00 0.00 76 1005.9
20260906124504 16 360 0.0 1.6 0.00 0.00 0.00 76 1005.8
20260906123102 16 360 0.0 1.6 0.00 0.00 0.00 74 1005.8
20260906121608 16 360 0.0 0.0 0.00 0.00 0.00 73 1005.8
20260906120058 17 360 0.0 1.6 0.00 0.00 0.00 73 1005.8
20260906114611 17 360 0.0 1.6 0.00 0.00 0.00 74 1005.8
20260906113058 17 360 0.0 1.6 0.00 0.00 0.00 76 1005.5
20260906111554 17 360 0.0 1.6 0.00 0.00 0.00 76 1005.6
20260906110052 17 360 0.0 3.2 0.00 0.00 0.00 76 1005.5
20260906104550 17 360 0.0 4.8 0.00 0.00 0.00 71 1005.5
20260906103048 17 360 1.6 4.8 0.00 0.00 0.00 66 1005.4
20260906101545 18 360 0.0 4.8 0.00 0.00 0.00 64 1005.4
20260906100042 18 360 0.0 6.4 0.00 0.00 0.00 61 1005.5
20260906094540 18 360 1.6 6.4 0.00 0.00 0.00 59 1005.5
20260906093038 19 360 0.0 1.6 0.00 0.00 0.00 56 1005.4
20260906091535 20 360 0.0 0.0 0.00 0.00 0.00 54 1005.3
20260906090031 20 360 0.0 4.8 0.00 0.00 0.00 53 1005.2
20260906084532 20 360 0.0 0.0 0.00 0.00 0.00 55 1005.1
20260906083028 20 360 1.6 6.4 0.00 0.00 0.00 54 1005.1
20260906081539 21 360 0.0 4.8 0.00 0.00 0.00 48 1004.7
20260906080025 21 360 3.2 12.9 0.00 0.00 0.00 49 1004.6
20260906074524 21 360 1.6 8.0 0.00 0.00 0.00 49 1004.5
20260906073023 21 360 6.4 14.5 0.00 0.00 0.00 50 1004.4
20260906071521 21 360 1.6 9.7 0.00 0.00 0.00 51 1004.4
20260906070020 21 360 3.2 8.0 0.00 0.00 0.00 52 1004.5
20260906064518 22 360 0.0 4.8 0.00 0.00 0.00 51 1004.6
20260906063012 22 360 3.2 6.4 0.00 0.00 0.00 48 1004.7
20260906061509 23 360 1.6 6.4 0.00 0.00 0.00 46 1004.9
20260906060015 23 360 0.0 4.8 0.00 0.00 0.00 47 1005.0
20260906054505 23 360 0.0 9.7 0.00 0.00 0.00 46 1005.0
20260906053013 23 360 3.2 8.0 0.00 0.00 0.00 44 1004.7
20260906051506 25 360 6.4 12.9 0.00 0.00 0.00 41 1005.5
20260906050016 25 360 0.0 8.0 0.00 0.00 0.00 41 1005.8
20260906044504 24 360 0.0 8.0 0.00 0.00 0.00 40 1005.8
20260906043101 24 360 0.0 1.6 0.00 0.00 0.00 39 1005.2
20260906041600 24 360 1.6 6.4 0.00 0.00 0.00 38 1004.7
20260906040059 23 360 0.0 0.0 0.00 0.00 0.00 39 1004.5
20260906034559 24 360 0.0 1.6 0.00 0.00 0.00 38 1004.4
20260906033058 25 360 4.8 14.5 0.00 0.00 0.00 36 1004.1
20260906031603 26 360 0.0 8.0 0.00 0.00 0.00 32 1003.9
20260906030057 25 360 0.0 6.4 0.00 0.00 0.00 33 1003.5
20260906024556 26 360 0.0 6.4 0.00 0.00 0.00 31 1003.1
20260906023059 27 360 0.0 0.0 0.00 0.00 0.00 31 1002.9
20260906021555 27 360 0.0 3.2 0.00 0.00 0.00 29 1002.8
20260906014554 27 360 1.6 8.0 0.00 0.00 0.00 28 1002.7
20260906013054 28 360 4.8 9.7 0.00 0.00 0.00 28 1002.4
20260906011553 28 360 3.2 9.7 0.00 0.00 0.00 28 1002.5
20260906010052 29 360 4.8 16.1 0.00 0.00 0.00 26 1002.4
20260906004552 30 360 8.0 20.9 0.00 0.00 0.00 24 1002.4
20260906003051 30 360 1.6 6.4 0.00 0.00 0.00 24 1002.4
20260906001551 31 360 3.2 8.0 0.00 0.00 0.00 23 1002.4
20260906000050 32 360 0.0 4.8 0.00 0.00 0.00 22 1002.2
20260905234549 32 360 0.0 0.0 0.00 0.00 0.00 20 1002.2
20260905233050 32 360 0.0 6.4 0.00 0.00 0.00 21 1002.2
20260905231548 33 360 1.6 4.8 0.00 0.00 0.00 20 1002.2
20260905230052 33 360 0.0 4.8 0.00 0.00 0.00 21 1002.1